• In Italy
  • List of Countries
  • For 7 days
  • Water Temperature
  • Satellite Maps
  • Weather Map
  • Weather Widgets
  • user-avatar
    Login

    Hourly Weather San Juan

    Today, 16 November, Friday

    Time Temperature Precipitation Wind Pressure Humidity
    00:00 +27°C° 0 mm 6 mps 761 mmHg 86%
    01:00 +27°C° 0 mm 6 mps 761 mmHg 85%
    02:00 +27°C° 0 mm 5 mps 760 mmHg 85%
    03:00 +27°C° 0 mm 5 mps 760 mmHg 85%
    04:00 +27°C° 0 mm 5 mps 760 mmHg 85%
    05:00 +27°C° 0 mm 5 mps 760 mmHg 85%
    06:00 +28°C° 0.1 mm 5 mps 761 mmHg 83%
    07:00 +28°C° 0.1 mm 6 mps 761 mmHg 82%
    08:00 +29°C° 0.1 mm 6 mps 761 mmHg 80%
    09:00 +29°C° 0.1 mm 6 mps 761 mmHg 77%
    10:00 +30°C° 0.1 mm 6 mps 761 mmHg 73%
    11:00 +32°C° 0.1 mm 7 mps 761 mmHg 70%
    12:00 +32°C° 0.3 mm 7 mps 761 mmHg 71%
    13:00 +32°C° 0.3 mm 7 mps 760 mmHg 71%
    14:00 +32°C° 0.3 mm 7 mps 760 mmHg 72%
    15:00 +30°C° 0.7 mm 7 mps 760 mmHg 75%
    16:00 +29°C° 0.7 mm 7 mps 760 mmHg 77%
    17:00 +29°C° 0.7 mm 7 mps 759 mmHg 80%
    18:00 +28°C° 0.2 mm 7 mps 760 mmHg 82%
    19:00 +28°C° 0.2 mm 6 mps 760 mmHg 83%
    20:00 +27°C° 0.2 mm 6 mps 760 mmHg 85%
    21:00 +27°C° 0.3 mm 6 mps 760 mmHg 85%
    22:00 +27°C° 0.3 mm 6 mps 760 mmHg 85%
    23:00 +27°C° 0.3 mm 6 mps 760 mmHg 86%

    Tomorrow, 17 November, Saturday

    Time Temperature Precipitation Wind Pressure Humidity
    00:00 +27°C° 0.2 mm 6 mps 760 mmHg 85%
    01:00 +27°C° 0.2 mm 6 mps 760 mmHg 85%
    02:00 +27°C° 0.2 mm 6 mps 760 mmHg 85%
    03:00 +27°C° 0.1 mm 6 mps 760 mmHg 86%
    04:00 +27°C° 0.1 mm 6 mps 760 mmHg 86%
    05:00 +27°C° 0.1 mm 6 mps 760 mmHg 86%
    06:00 +28°C° 0 mm 6 mps 760 mmHg 84%
    07:00 +28°C° 0 mm 6 mps 761 mmHg 83%
    08:00 +28°C° 0 mm 6 mps 761 mmHg 81%
    09:00 +29°C° 0 mm 6 mps 762 mmHg 76%
    10:00 +30°C° 0 mm 6 mps 762 mmHg 71%
    11:00 +32°C° 0 mm 6 mps 762 mmHg 66%
    12:00 +32°C° 0 mm 6 mps 762 mmHg 65%
    13:00 +32°C° 0 mm 6 mps 761 mmHg 65%
    14:00 +33°C° 0 mm 6 mps 760 mmHg 64%
    15:00 +32°C° 0 mm 6 mps 760 mmHg 67%
    16:00 +30°C° 0 mm 6 mps 760 mmHg 70%
    17:00 +30°C° 0 mm 6 mps 760 mmHg 73%
    18:00 +29°C° 0 mm 5 mps 760 mmHg 76%
    19:00 +28°C° 0 mm 5 mps 760 mmHg 79%
    20:00 +28°C° 0 mm 5 mps 761 mmHg 82%
    21:00 +28°C° 0 mm 5 mps 761 mmHg 83%
    22:00 +27°C° 0 mm 5 mps 761 mmHg 84%
    23:00 +27°C° 0 mm 5 mps 761 mmHg 84%

    Day after tomorrow, 18 November, Sunday

    Time Temperature Precipitation Wind Pressure Humidity
    00:00 +27°C° 0 mm 5 mps 761 mmHg 85%
    01:00 +27°C° 0 mm 5 mps 761 mmHg 85%
    02:00 +27°C° 0 mm 5 mps 761 mmHg 86%
    03:00 +27°C° 0.1 mm 5 mps 760 mmHg 86%
    04:00 +27°C° 0.1 mm 5 mps 760 mmHg 86%
    05:00 +27°C° 0.1 mm 5 mps 760 mmHg 86%
    06:00 +27°C° 0 mm 6 mps 761 mmHg 84%
    07:00 +28°C° 0 mm 6 mps 761 mmHg 82%
    08:00 +28°C° 0 mm 6 mps 761 mmHg 79%
    09:00 +29°C° 0 mm 6 mps 762 mmHg 74%
    10:00 +30°C° 0 mm 6 mps 762 mmHg 70%
    11:00 +32°C° 0 mm 6 mps 762 mmHg 65%
    12:00 +32°C° 0 mm 6 mps 761 mmHg 64%
    13:00 +32°C° 0 mm 6 mps 761 mmHg 63%
    14:00 +33°C° 0 mm 5 mps 760 mmHg 62%
    15:00 +32°C° 0 mm 5 mps 760 mmHg 67%
    16:00 +30°C° 0 mm 5 mps 760 mmHg 71%
    17:00 +29°C° 0 mm 5 mps 760 mmHg 75%
    18:00 +29°C° 0 mm 5 mps 760 mmHg 77%
    19:00 +28°C° 0 mm 5 mps 761 mmHg 80%
    20:00 +27°C° 0 mm 5 mps 761 mmHg 83%
    21:00 +27°C° 0.1 mm 5 mps 761 mmHg 83%
    22:00 +27°C° 0.1 mm 5 mps 761 mmHg 84%
    23:00 +27°C° 0.1 mm 5 mps 761 mmHg 84%

    19 November, Monday

    Time Temperature Precipitation Wind Pressure Humidity
    00:00 +27°C° 0.1 mm 5 mps 761 mmHg 84%
    01:00 +27°C° 0.1 mm 5 mps 761 mmHg 84%
    02:00 +27°C° 0.1 mm 5 mps 761 mmHg 84%
    03:00 +27°C° 0 mm 5 mps 760 mmHg 84%
    04:00 +27°C° 0 mm 5 mps 760 mmHg 84%
    05:00 +27°C° 0 mm 5 mps 760 mmHg 84%
    06:00 +27°C° 0.1 mm 5 mps 761 mmHg 83%
    07:00 +28°C° 0.1 mm 5 mps 761 mmHg 82%
    08:00 +28°C° 0.1 mm 5 mps 761 mmHg 80%
    09:00 +29°C° 0.1 mm 5 mps 762 mmHg 77%
    10:00 +30°C° 0.1 mm 6 mps 762 mmHg 73%
    11:00 +32°C° 0.1 mm 6 mps 762 mmHg 70%
    12:00 +32°C° 0.3 mm 6 mps 761 mmHg 70%
    13:00 +32°C° 0.3 mm 6 mps 761 mmHg 70%
    14:00 +32°C° 0.3 mm 6 mps 760 mmHg 70%
    15:00 +30°C° 0 mm 6 mps 760 mmHg 72%
    16:00 +30°C° 0 mm 6 mps 759 mmHg 73%
    17:00 +29°C° 0 mm 6 mps 759 mmHg 75%
    18:00 +29°C° 0 mm 6 mps 760 mmHg 78%
    19:00 +28°C° 0 mm 6 mps 760 mmHg 81%
    20:00 +27°C° 0 mm 6 mps 761 mmHg 84%
    21:00 +27°C° 0 mm 6 mps 761 mmHg 84%
    22:00 +27°C° 0 mm 6 mps 761 mmHg 84%
    23:00 +27°C° 0 mm 5 mps 761 mmHg 84%

    20 November, Tuesday

    Time Temperature Precipitation Wind Pressure Humidity
    00:00 +27°C° 0 mm 5 mps 761 mmHg 84%
    01:00 +27°C° 0 mm 5 mps 760 mmHg 84%
    02:00 +27°C° 0 mm 5 mps 760 mmHg 84%
    03:00 +27°C° 0 mm 5 mps 760 mmHg 84%
    04:00 +26°C° 0 mm 5 mps 760 mmHg 84%
    05:00 +26°C° 0 mm 5 mps 760 mmHg 84%
    06:00 +27°C° 0 mm 5 mps 760 mmHg 82%
    07:00 +28°C° 0 mm 5 mps 761 mmHg 80%
    08:00 +28°C° 0 mm 5 mps 761 mmHg 78%
    09:00 +29°C° 0 mm 5 mps 761 mmHg 73%
    10:00 +30°C° 0 mm 5 mps 761 mmHg 69%
    11:00 +32°C° 0 mm 6 mps 762 mmHg 65%
    12:00 +32°C° 0.1 mm 6 mps 761 mmHg 66%
    13:00 +32°C° 0.1 mm 6 mps 760 mmHg 68%
    14:00 +32°C° 0.1 mm 6 mps 760 mmHg 70%
    15:00 +30°C° 0.3 mm 6 mps 760 mmHg 73%
    16:00 +29°C° 0.3 mm 6 mps 760 mmHg 76%
    17:00 +29°C° 0.3 mm 6 mps 760 mmHg 79%
    18:00 +28°C° 0.1 mm 6 mps 760 mmHg 81%
    19:00 +28°C° 0.1 mm 5 mps 761 mmHg 83%
    20:00 +27°C° 0.1 mm 5 mps 761 mmHg 84%
    21:00 +27°C° 0 mm 5 mps 761 mmHg 84%
    22:00 +27°C° 0 mm 5 mps 761 mmHg 84%
    23:00 +27°C° 0 mm 5 mps 761 mmHg 84%

    21 November, Wednesday

    Time Temperature Precipitation Wind Pressure Humidity
    00:00 +26°C° 0 mm 5 mps 761 mmHg 84%
    01:00 +26°C° 0 mm 5 mps 761 mmHg 84%
    02:00 +26°C° 0 mm 4 mps 761 mmHg 84%
    03:00 +26°C° 0.1 mm 5 mps 760 mmHg 85%
    04:00 +26°C° 0.1 mm 5 mps 760 mmHg 86%
    05:00 +26°C° 0.1 mm 5 mps 760 mmHg 87%
    06:00 +27°C° 0.1 mm 5 mps 761 mmHg 85%
    07:00 +27°C° 0.1 mm 5 mps 761 mmHg 83%
    08:00 +28°C° 0.1 mm 5 mps 762 mmHg 82%
    09:00 +29°C° 0.1 mm 5 mps 762 mmHg 77%
    10:00 +30°C° 0.1 mm 5 mps 762 mmHg 73%
    11:00 +32°C° 0.1 mm 5 mps 762 mmHg 69%
    12:00 +32°C° 0.2 mm 5 mps 762 mmHg 71%
    13:00 +30°C° 0.2 mm 5 mps 761 mmHg 72%
    14:00 +30°C° 0.2 mm 5 mps 760 mmHg 73%
    15:00 +30°C° 0.1 mm 5 mps 760 mmHg 75%
    16:00 +29°C° 0.1 mm 5 mps 760 mmHg 77%
    17:00 +29°C° 0.1 mm 4 mps 760 mmHg 79%
    18:00 +28°C° 0 mm 4 mps 760 mmHg 81%
    19:00 +28°C° 0 mm 4 mps 761 mmHg 83%
    20:00 +27°C° 0 mm 4 mps 761 mmHg 84%
    21:00 +27°C° 0 mm 4 mps 761 mmHg 84%
    22:00 +27°C° 0 mm 4 mps 761 mmHg 85%
    23:00 +27°C° 0 mm 4 mps 761 mmHg 85%
    Show more